User: anonymous   Login
Location: Cargill Incorporated Elevator
(42.7294°N, 93.7333°W)
Time: 13:46:45
(UTC+00:00)
Language:

CZ-2D R/B - Orbit

View from above orbital plane
View from above orbital plane
View from above satellite
View from above satellite

Ground track
Ground track

The orbit is defined by the following mean orbital elements,

1 28738U          26074.28849363 +.00000000 +00000-0 +57776-3 0 00008
2 28738  97.3594  89.6420 0004834  32.3198 327.8355 15.60699466    06
Epoch (UTC): 15 March 2026 06:55:25
Eccentricity: 0.0004834
inclination: 97.3594°
perigee height: 382 km
apogee height: 389 km
right ascension of ascending node: 89.6420°
argument of perigee: 32.3198°
revolutions per day: 15.60699466
mean anomaly at epoch: 327.8355°

The dashed part of the orbit path shows where the satellite is in the earth's shadow,  

DLR